Flag for United Kingdom Weather past 2 weeks in Belfast, Northern Ireland, United Kingdom

Now
63 °F

Scattered showers. Scattered clouds.


Feels Like: 63 °F
Forecast: 48 / 63 °F
Wind: 13 mph from Southeast

Location: Belfast / Harbour

Current Time: Jul 5, 2015 at 2:40:39 PM

Latest Report: Jul 5, 2015 at 2:20 PM


Visibility: N/A

Pressure: 29.89 "Hg

Humidity: 68%

Dew point: 52 °F

Location of BelfastLocation

Historic Weather in Belfast — Graph

°F

Belfast temperature yesterday

Maximum temperature yesterday: 70 °F (at 1:50 PM)
Minimum temperature yesterday: 57 °F (at 6:20 AM)
Average temperature yesterday: 64 °F

Past Weeks' High & Low Weather Summary

 TemperatureHumidityPressure
High73 °F (Jul 1, 11:20 AM)94% (Jul 4, 8:20 AM)30.24 "Hg (Jul 4, 8:20 AM)
Low50 °F (Jun 22, 6:20 AM)43% (Jun 26, 2:50 PM)29.74 "Hg (Jul 1, 12:20 PM)
Average62 °F66%29.96 "Hg
* Reported Jun 20 1:20 PM — Jul 5 1:20 PM, Belfast, Weather by CustomWeather, © 2015

Note: Actual official high and low records may vary slightly from our data, if they occured in-between our weather recording intervals... More about our weather records

Advertising

Belfast weather history for previous 24 hours

 ConditionsComfort  
Time TempWeatherWind HumidityBarometerVisibility
1:20 PM
Sun, Jul 5
61 °FSprinkles. Scattered clouds.14 mph63%29.89 "HgN/A
12:50 PM61 °FScattered showers. Scattered clouds.17 mph72%29.89 "HgN/A
12:20 PM63 °FScattered clouds.15 mph68%29.89 "HgN/A
11:50 AM63 °FScattered clouds.10 mph68%29.92 "HgN/A
11:20 AM61 °FScattered showers. Broken clouds.12 mph77%29.92 "HgN/A
10:50 AM61 °FSprinkles. Broken clouds.9 mph83%29.92 "HgN/A
10:20 AM59 °FScattered clouds.14 mph77%29.92 "HgN/A
9:50 AM61 °FScattered showers. Broken clouds.12 mph72%29.95 "HgN/A
9:20 AM59 °FLight rain. Scattered clouds.9 mph77%29.95 "HgN/A
8:50 AM59 °FScattered clouds.10 mph77%29.95 "HgN/A
8:20 AM59 °FScattered clouds.7 mph77%29.95 "HgN/A
7:50 AM57 °FPassing clouds.7 mph82%29.95 "HgN/A
7:20 AM57 °FPassing clouds.7 mph82%29.95 "HgN/A
6:50 AM55 °FPassing clouds.6 mph82%29.95 "HgN/A
6:20 AM55 °FPassing clouds.5 mph82%29.98 "HgN/A
9:20 PM
Sat, Jul 4
61 °FPassing clouds.3 mph68%29.98 "HgN/A
8:50 PM63 °FScattered clouds.10 mph64%29.95 "HgN/A
8:20 PM63 °FScattered clouds.9 mph64%29.95 "HgN/A
7:50 PM64 °FScattered clouds.12 mph60%29.95 "HgN/A
7:20 PM64 °FPassing clouds.10 mph64%29.95 "HgN/A
6:50 PM68 °FScattered clouds.8 mph46%29.92 "HgN/A
6:20 PM68 °FScattered clouds.10 mph46%29.92 "HgN/A
5:50 PM66 °FPassing clouds.9 mph52%29.92 "HgN/A
5:20 PM68 °FPassing clouds.9 mph49%29.92 "HgN/A
4:50 PM68 °FPassing clouds.12 mph49%29.92 "HgN/A
4:20 PM68 °FPassing clouds.13 mph46%29.92 "HgN/A
3:50 PM70 °FPassing clouds.14 mph43%29.89 "HgN/A
3:20 PM70 °FPassing clouds.12 mph43%29.89 "HgN/A
2:50 PM70 °FPassing clouds.14 mph50%29.89 "HgN/A
2:20 PM68 °FScattered clouds.13 mph53%29.89 "HgN/A
Weather by CustomWeather, © 2015

See weather overviewHow to use our weather pages